Weather History for Erwin, NC

Change the Weather History Date:

Monday, April 21, 2014

  Actual Average Record
Temperature  
Mean Temperature 60 °F -  
Max Temperature 74 °F 75 °F 95 °F (2002)
Min Temperature 45 °F 48 °F 31 °F (1983)
Degree Days  
Heating Degree Days 6    
Growing Degree Days 10 (Base 50)    
Moisture  
Dew Point 39 °F    
Average Humidity 52    
Maximum Humidity 83    
Minimum Humidity 20    
Precipitation  
Precipitation 0.00 in - - ()
Sea Level Pressure  
Sea Level Pressure 30.07 in    
Wind  
Wind Speed 5 mph (North)    
Max Wind Speed 9 mph    
Max Gust Speed -    
Visibility 10 miles    
Events      
Averages and records for this station are not official NWS values.
T = Trace of Precipitation, MM = Missing Value Source: NWS Daily Summary

Daily Weather History Graph

Daily Weather History Graph

Search for Another Location

Airport:

Trip Planner

Search our weather history database for the weather conditions in past years. The results will help you decide how hot, cold, wet, or windy it might be!

Date:

Astronomy

Apr. 21, 2014 Rise Set
Actual Time 6:34 AM EDT 7:52 PM EDT
Civil Twilight 6:08 AM EDT 8:19 PM EDT
Nautical Twilight 5:36 AM EDT 8:51 PM EDT
Astronomical Twilight 5:03 AM EDT 9:24 PM EDT
Moon 1:18 AM EDT (4/21) 12:02 PM EDT (4/21)
Length of Visible Light 14h 10m
Length of Day
13h 17m
Waning Gibbous, 58% of the Moon is Illuminated
Apr 21
Waning Gibbous
Apr 22
Last Quarter
Apr 29
New
May 6
First Quarter
May 14
Full

Hourly Weather History & Observations

Time (EDT) Temp. Windchill Dew Point Humidity Pressure Visibility Wind Dir Wind Speed Gust Speed Precip Events Conditions
12:15 AM 56.3 °F - 33.6 °F 42% 30.20 in 10.0 mi North 6.9 mph - N/A   Overcast
12:35 AM 55.8 °F - 32.9 °F 42% 30.19 in 10.0 mi NNE 9.2 mph - N/A   Overcast
12:55 AM 55.4 °F - 34.0 °F 44% 30.18 in 10.0 mi NNE 5.8 mph - N/A   Overcast
1:15 AM 54.9 °F - 34.5 °F 46% 30.18 in 10.0 mi NNE 8.1 mph - N/A   Overcast
1:35 AM 54.3 °F - 34.9 °F 48% 30.17 in 10.0 mi NNE 9.2 mph - N/A   Overcast
1:55 AM 53.6 °F - 35.6 °F 51% 30.16 in 10.0 mi NNE 8.1 mph - N/A   Overcast
2:15 AM 52.3 °F - 34.9 °F 51% 30.16 in 10.0 mi NNE 5.8 mph - N/A   Mostly Cloudy
2:35 AM 50.9 °F - 34.2 °F 53% 30.15 in 10.0 mi NNE 6.9 mph - N/A   Clear
2:55 AM 50.0 °F - 34.7 °F 56% 30.14 in 10.0 mi North 6.9 mph - N/A   Clear
3:15 AM 49.3 °F - 35.2 °F 58% 30.14 in 10.0 mi North 3.5 mph - N/A   Clear
3:35 AM 48.6 °F - 35.6 °F 61% 30.14 in 10.0 mi North 3.5 mph - N/A   Clear
3:55 AM 47.3 °F - 36.5 °F 66% 30.14 in 10.0 mi NNW 3.5 mph - N/A   Clear
4:15 AM 47.3 °F - 36.5 °F 66% 30.14 in 10.0 mi NNW 4.6 mph - N/A   Clear
4:35 AM 46.4 °F 45.2 °F 37.0 °F 70% 30.13 in 10.0 mi NNW 3.5 mph - N/A   Clear
4:55 AM 46.6 °F - 37.0 °F 69% 30.13 in 10.0 mi NNW 4.6 mph - N/A   Clear
5:15 AM 46.4 °F 44.3 °F 37.4 °F 71% 30.13 in 10.0 mi NNW 4.6 mph - N/A   Clear
5:35 AM 45.9 °F 44.6 °F 37.6 °F 73% 30.14 in 10.0 mi NNW 3.5 mph - N/A   Clear
5:55 AM 45.7 °F 43.4 °F 37.4 °F 73% 30.14 in 10.0 mi North 4.6 mph - N/A   Clear
6:15 AM 45.5 °F 42.5 °F 37.2 °F 73% 30.14 in 10.0 mi North 5.8 mph - N/A   Clear
6:35 AM 45.5 °F 41.8 °F 36.9 °F 72% 30.14 in 10.0 mi North 6.9 mph - N/A   Clear
6:55 AM 45.1 °F 42.0 °F 36.9 °F 73% 30.15 in 10.0 mi North 5.8 mph - N/A   Clear
7:15 AM 45.5 °F 42.5 °F 36.5 °F 71% 30.16 in 10.0 mi North 5.8 mph - N/A   Clear
7:35 AM 46.0 °F 43.9 °F 36.5 °F 69% 30.16 in 10.0 mi North 4.6 mph - N/A   Clear
7:55 AM 47.1 °F - 37.2 °F 68% 30.16 in 10.0 mi North 6.9 mph - N/A   Clear
8:15 AM 48.4 °F - 37.9 °F 67% 30.15 in 10.0 mi North 6.9 mph - N/A   Clear
8:35 AM 49.5 °F - 38.7 °F 66% 30.15 in 10.0 mi North 5.8 mph - N/A   Clear
8:55 AM 51.8 °F - 40.3 °F 65% 30.14 in 10.0 mi North 4.6 mph - N/A   Clear
9:15 AM 53.1 °F - 40.8 °F 63% 30.14 in 10.0 mi North 8.1 mph - N/A   Clear
9:35 AM 54.5 °F - 41.5 °F 62% 30.14 in 10.0 mi NNW 6.9 mph - N/A   Clear
9:55 AM 55.6 °F - 42.3 °F 61% 30.14 in 10.0 mi North 8.1 mph - N/A   Clear
10:15 AM 57.7 °F - 43.5 °F 59% 30.14 in 10.0 mi North 5.8 mph - N/A   Clear
10:35 AM 58.3 °F - 43.3 °F 58% 30.14 in 10.0 mi North 5.8 mph - N/A   Clear
10:55 AM 60.4 °F - 44.6 °F 56% 30.13 in 10.0 mi North 8.1 mph - N/A   Clear
11:15 AM 61.2 °F - 44.8 °F 55% 30.13 in 10.0 mi NNW 8.1 mph - N/A   Clear
11:35 AM 62.6 °F - 45.5 °F 54% 30.12 in 10.0 mi North 4.6 mph - N/A   Clear
11:55 AM 63.9 °F - 46.0 °F 52% 30.11 in 10.0 mi NNW 3.5 mph - N/A   Clear
12:15 PM 64.6 °F - 46.0 °F 51% 30.10 in 10.0 mi NNE 5.8 mph - N/A   Clear
12:35 PM 66.2 °F - 47.1 °F 50% 30.10 in 10.0 mi North 8.1 mph - N/A   Clear
12:55 PM 66.9 °F - 46.9 °F 49% 30.08 in 10.0 mi North 6.9 mph - N/A   Clear
1:15 PM 68.7 °F - 46.9 °F 46% 30.07 in 10.0 mi North 6.9 mph - N/A   Clear
1:35 PM 68.5 °F - 45.3 °F 43% 30.07 in 10.0 mi North 4.6 mph - N/A   Clear
1:55 PM 70.7 °F - 45.5 °F 40% 30.05 in 10.0 mi NNW 4.6 mph - N/A   Clear
2:15 PM 71.4 °F - 41.7 °F 34% 30.05 in 10.0 mi NNE 4.6 mph - N/A   Clear
2:35 PM 70.9 °F - 41.2 °F 34% 30.04 in 10.0 mi Calm Calm - N/A   Clear
2:55 PM 73.8 °F - 37.6 °F 27% 30.03 in 10.0 mi NE 6.9 mph - N/A   Clear
3:15 PM 72.0 °F - 36.9 °F 28% 30.02 in 10.0 mi Calm Calm - N/A   Clear
3:35 PM 73.6 °F - 33.4 °F 23% 30.01 in 10.0 mi Calm Calm - N/A   Clear
3:55 PM 73.4 °F - 32.7 °F 22% 30.00 in 10.0 mi Calm Calm - N/A   Clear
4:15 PM 73.2 °F - 32.9 °F 23% 29.99 in 10.0 mi NNW 4.6 mph - N/A   Clear
4:35 PM 74.1 °F - 33.6 °F 23% 29.98 in 10.0 mi NE 5.8 mph - N/A   Clear
4:55 PM 74.3 °F - 32.2 °F 21% 29.97 in 10.0 mi Calm Calm - N/A   Clear
5:15 PM 73.4 °F - 31.1 °F 21% 29.97 in 10.0 mi Calm Calm - N/A   Clear
5:35 PM 74.3 °F - 31.8 °F 21% 29.97 in 10.0 mi Calm Calm - N/A   Clear
5:55 PM 72.7 °F - 29.7 °F 20% 29.97 in 10.0 mi Calm Calm - N/A   Clear
6:15 PM 72.5 °F - 31.8 °F 22% 29.96 in 10.0 mi Calm Calm - N/A   Clear
6:35 PM 73.0 °F - 31.8 °F 22% 29.96 in 10.0 mi Calm Calm - N/A   Clear
6:55 PM 72.3 °F - 31.8 °F 22% 29.95 in 10.0 mi Calm Calm - N/A   Clear
7:15 PM 71.4 °F - 31.6 °F 23% 29.96 in 10.0 mi Calm Calm - N/A   Clear
7:35 PM 69.3 °F - 38.1 °F 32% 29.95 in 10.0 mi Calm Calm - N/A   Clear
7:55 PM 67.5 °F - 38.1 °F 34% 29.96 in 10.0 mi Calm Calm - N/A   Clear
8:15 PM 63.0 °F - 42.6 °F 47% 29.96 in 10.0 mi Calm Calm - N/A   Clear
8:55 PM 61.2 °F - 43.9 °F 53% 29.96 in 10.0 mi Calm Calm - N/A   Clear
9:15 PM 58.5 °F - 45.1 °F 61% 29.96 in 10.0 mi Calm Calm - N/A   Clear
9:35 PM 57.9 °F - 45.5 °F 63% 29.96 in 10.0 mi Calm Calm - N/A   Clear
9:55 PM 56.7 °F - 45.7 °F 67% 29.96 in 10.0 mi Calm Calm - N/A   Clear
10:15 PM 55.2 °F - 45.5 °F 70% 29.96 in 10.0 mi Calm Calm - N/A   Clear
10:35 PM 53.8 °F - 45.5 °F 74% 29.95 in 10.0 mi Calm Calm - N/A   Clear
10:55 PM 52.2 °F - 46.6 °F 81% 29.95 in 10.0 mi Calm Calm - N/A   Clear
11:15 PM 51.4 °F - 46.4 °F 83% 29.95 in 10.0 mi Calm Calm - N/A   Clear
11:35 PM 52.0 °F - 46.8 °F 82% 29.94 in 10.0 mi Calm Calm - N/A   Clear
11:55 PM 51.4 °F - 46.6 °F 83% 29.94 in 10.0 mi Calm Calm - N/A   Clear